Wind_Speed
24 25 26 27 28 29 30 31 32 33 35 36 37 39 40 42 43 44 46 47 48 50 51 52 53 54 56 57 58 59 60 61 62 64 65 65 65 66 66 65 66 66 64 63 62 63 64 65 66 66 67 66 65 64 62 62 59 60 61 59 60 58 56 56 51 38 30 29 28 30 29 29 31 35 42 47 51 45 45 53 48 46 43 43 43 41 41 39
22 23 24 24 25 26 28 29 30 32 33 35 36 38 39 41 42 44 45 47 48 50 51 52 53 55 56 58 59 59 60 61 63 64 64 65 67 67 67 67 67 68 67 66 65 64 64 65 66 68 69 68 67 66 64 63 64 65 63 62 63 62 59 55 51 46 40 30 27 28 28 36 37 34 35 37 43 42 40 49 51 46 46 46 44 44 43 37
20 21 22 23 24 25 26 27 29 30 31 32 34 35 37 39 40 42 44 46 47 49 50 52 53 55 56 58 59 60 61 62 64 64 63 64 66 67 68 68 68 69 69 69 68 66 66 65 66 68 69 70 69 69 67 66 68 67 66 67 65 62 59 56 52 52 49 35 26 27 30 40 41 41 39 33 36 39 34 36 41 41 42 42 39 38 37 32
19 20 20 21 22 23 24 25 26 27 28 30 32 34 35 37 39 41 42 43 45 47 49 50 51 53 54 57 58 61 61 62 65 64 63 65 65 66 68 69 69 70 70 71 70 69 68 67 67 68 69 70 70 71 70 69 70 69 69 68 65 63 60 59 56 53 52 43 32 27 30 35 37 44 47 42 40 38 32 27 28 30 34 37 34 33 33 30
18 19 19 20 20 21 22 24 25 27 29 31 33 35 37 38 39 39 39 40 41 43 45 46 48 49 50 53 54 57 59 60 65 63 62 64 65 66 66 68 69 70 71 71 72 71 70 69 69 69 69 69 70 73 72 70 72 71 71 68 64 64 63 61 58 56 54 52 43 30 30 30 30 39 43 45 44 39 31 22 22 24 28 35 34 34 34 31
17 18 18 19 20 22 23 25 28 30 33 35 37 38 38 39 39 39 39 38 39 39 40 41 42 44 45 47 49 52 54 56 63 61 59 62 64 65 65 66 68 69 71 72 72 72 72 71 71 71 69 69 70 72 72 71 73 74 72 68 66 65 65 63 59 58 56 57 51 35 34 36 34 40 41 42 44 40 31 23 27 29 28 32 32 33 33 31
18 18 19 21 22 24 26 29 31 33 35 36 37 37 37 37 37 37 37 38 39 40 40 40 40 40 41 43 44 47 49 52 58 57 56 59 62 64 64 65 66 68 69 71 72 72 73 73 73 72 71 70 70 70 71 72 74 76 73 68 67 66 66 65 59 58 57 58 54 39 35 42 47 47 44 44 44 41 35 32 39 40 36 31 28 32 31 31
20 21 22 23 25 27 29 31 32 34 34 35 34 33 33 34 34 35 37 38 40 41 42 43 43 43 43 43 44 45 48 49 51 53 54 55 58 60 62 63 64 65 67 69 71 72 73 73 73 73 73 72 71 69 70 73 75 76 73 68 67 68 68 67 63 61 57 56 56 46 36 44 51 47 47 47 44 42 35 39 48 44 41 36 32 33 32 33
21 22 23 24 26 27 29 30 31 32 32 31 30 30 31 32 34 36 38 40 41 43 44 44 45 46 46 46 46 47 49 49 49 51 52 52 53 56 58 60 62 62 65 67 69 71 72 72 73 74 74 73 72 71 71 73 75 74 72 69 69 71 69 67 68 66 61 58 60 59 52 53 52 48 52 48 45 45 35 42 51 41 39 39 37 36 35 35
21 22 23 24 25 26 28 29 29 29 29 29 28 29 32 34 36 39 41 42 44 45 46 47 47 48 49 49 49 50 50 50 50 51 52 51 51 52 54 56 58 60 62 65 66 68 70 71 72 73 74 74 74 73 73 73 73 73 71 71 71 73 70 69 73 69 64 63 63 68 67 61 56 54 56 49 49 48 38 48 52 39 39 40 38 38 37 37
22 22 23 24 25 26 27 27 27 27 27 28 29 31 34 37 39 41 43 44 45 47 48 49 50 50 51 51 51 52 52 52 51 52 53 54 52 52 53 53 55 56 59 62 64 66 68 70 71 73 74 75 75 75 75 74 73 73 71 72 74 76 74 72 75 71 68 69 67 70 69 62 59 60 56 50 54 50 45 53 50 40 41 39 38 39 38 39
23 23 23 24 25 26 26 26 25 25 26 28 31 34 38 40 42 43 45 46 47 47 47 47 48 49 50 51 51 53 54 54 53 53 54 55 55 55 54 53 53 54 55 58 62 64 66 68 70 72 73 74 75 76 76 75 75 73 72 74 76 77 76 73 75 75 71 71 69 70 70 64 62 62 56 52 57 54 52 55 47 42 42 39 39 39 39 41
24 24 24 25 25 25 25 24 24 25 26 29 33 36 39 42 44 46 46 46 45 43 42 43 45 47 49 50 51 52 54 54 54 54 55 55 56 56 56 55 53 53 54 55 58 63 63 65 68 69 71 73 74 75 76 76 76 74 73 75 75 76 75 72 75 76 71 70 71 71 72 65 61 60 57 56 58 57 57 54 47 45 43 41 41 40 40 41
24 24 25 25 25 25 24 23 23 25 27 31 34 37 40 43 44 45 44 43 41 40 39 40 43 45 47 49 50 52 52 52 53 52 53 54 54 55 56 56 55 54 53 53 55 59 61 62 64 67 69 72 73 75 76 75 76 76 74 74 75 76 73 70 75 77 71 71 72 73 72 63 57 58 57 60 60 58 59 55 49 48 46 44 42 41 42 41
25 25 25 25 25 24 23 23 23 25 28 31 34 37 40 42 42 42 41 40 39 38 38 38 40 43 45 45 45 47 49 49 48 48 48 48 49 51 54 55 55 54 54 54 54 56 58 59 61 64 66 68 71 72 74 75 77 77 75 75 77 75 70 69 75 76 72 71 72 73 71 59 55 57 57 62 63 60 60 54 50 52 49 47 46 44 44 43
27 26 26 26 25 24 23 23 24 27 29 31 34 37 38 39 40 39 38 37 36 36 36 36 38 42 45 43 40 40 44 46 45 45 44 44 43 45 48 50 53 55 55 54 55 54 55 57 59 62 62 66 69 69 71 75 76 77 77 77 78 74 69 69 74 75 71 71 73 72 67 59 56 57 59 62 63 61 61 55 52 55 52 49 50 48 47 47
28 28 27 26 25 24 24 24 26 28 29 32 33 33 34 36 36 35 34 34 35 35 34 34 38 42 44 40 35 35 37 39 40 42 42 41 40 40 42 46 49 53 54 54 55 54 54 55 57 60 61 63 67 68 70 73 74 76 77 76 76 74 70 70 71 73 73 71 71 71 66 62 59 57 59 60 62 64 61 56 53 55 54 51 51 50 49 49
29 28 28 27 25 24 24 25 27 28 29 30 29 29 30 32 32 32 32 34 36 35 32 33 37 41 43 39 34 34 36 35 35 37 39 39 39 39 40 43 46 49 51 52 53 53 53 54 55 58 60 62 65 68 70 74 74 74 75 74 74 74 72 71 69 70 74 71 69 71 68 64 60 58 58 57 62 64 58 53 53 54 55 52 52 53 51 51
29 29 28 27 25 24 25 26 27 28 28 28 26 27 28 29 30 30 29 33 35 34 33 35 35 37 39 40 38 33 32 32 32 34 36 37 38 39 40 41 43 45 48 49 50 52 53 53 55 58 60 62 64 67 70 72 71 71 73 73 72 74 73 71 69 65 70 72 68 69 69 65 61 59 57 56 61 62 54 49 48 51 54 52 53 54 51 51
30 29 28 27 26 24 25 26 27 27 27 26 25 27 29 30 30 30 29 31 34 33 34 37 36 35 35 37 37 31 25 24 27 30 33 35 36 37 39 40 41 43 44 45 46 48 50 53 55 57 59 60 61 64 67 67 67 67 68 69 70 71 70 69 69 64 64 73 70 64 67 68 62 58 56 56 60 59 53 46 40 44 50 52 53 54 51 49
30 29 28 27 26 25 25 26 26 27 26 25 26 27 30 32 32 32 31 31 34 34 34 36 37 36 33 33 34 30 24 21 23 27 29 32 33 34 36 38 40 41 41 40 41 44 48 52 55 55 55 56 58 60 63 64 65 64 64 65 66 68 69 66 66 64 63 73 72 63 66 68 62 58 54 56 63 59 53 45 38 38 44 49 52 53 52 48
30 29 28 27 26 25 25 25 26 26 26 25 27 29 31 33 33 34 32 30 33 35 34 35 35 35 33 31 30 29 24 22 22 23 24 26 28 31 33 35 38 40 40 40 40 43 47 49 51 52 52 52 55 57 59 63 63 63 63 54 47 52 60 64 61 56 59 72 74 67 67 65 61 58 54 57 66 61 54 48 41 40 43 46 49 51 51 46
30 28 28 27 26 25 25 25 26 26 27 27 28 30 32 34 34 35 34 31 31 33 33 34 34 33 33 30 28 27 25 23 22 21 20 21 25 29 32 34 35 37 40 42 43 44 45 45 44 47 51 51 54 56 57 61 62 63 61 45 38 39 41 56 59 47 53 71 74 70 68 64 59 58 54 56 65 62 56 50 45 45 45 45 47 49 48 44
30 28 28 28 27 26 25 26 26 27 27 28 29 30 33 34 34 35 36 33 31 31 32 33 33 32 32 30 28 26 24 22 23 24 21 20 23 27 30 32 34 37 40 43 44 45 45 43 40 42 50 52 54 56 57 61 61 62 62 51 49 44 32 44 54 46 54 71 73 67 64 65 62 58 55 56 63 61 54 49 47 48 47 45 47 48 45 42
30 29 28 28 28 27 26 26 27 27 28 29 30 31 33 34 34 36 37 35 32 30 30 31 31 31 31 30 28 25 23 21 22 25 25 24 26 28 29 31 34 36 39 41 43 46 46 42 39 41 49 53 55 56 57 61 61 62 65 58 53 46 33 36 40 37 48 66 74 67 59 63 65 60 55 56 63 61 52 49 49 49 48 47 48 46 43 41
31 29 28 28 28 28 28 27 27 28 28 29 30 31 33 34 34 36 37 35 33 30 29 30 31 31 31 30 28 26 23 20 19 24 26 27 29 29 30 32 33 34 36 39 42 46 46 43 42 43 48 53 56 57 57 60 60 61 64 60 55 45 32 33 35 28 38 61 73 71 65 60 58 60 59 58 63 61 52 48 50 50 50 50 48 44 42 40
33 30 28 28 28 28 29 28 28 29 29 30 30 31 33 33 34 35 37 36 33 31 30 30 31 33 33 31 28 26 23 20 19 22 26 27 28 28 29 30 31 32 34 38 43 47 46 44 44 46 48 51 55 58 57 57 59 61 59 59 61 48 27 29 38 30 32 50 55 58 67 56 43 54 62 60 61 59 52 48 51 52 51 51 48 44 42 39
34 32 29 28 28 28 29 29 28 28 29 30 30 31 32 32 33 35 36 36 33 32 30 30 32 34 35 32 30 26 23 22 21 22 24 25 27 27 28 29 29 31 35 38 44 46 46 46 45 47 49 50 53 58 58 53 55 60 53 51 62 59 37 26 35 35 29 35 36 41 61 59 46 50 57 59 61 58 52 48 50 53 53 52 49 45 42 38
35 33 31 29 28 29 29 29 29 28 29 30 30 31 31 31 34 35 36 35 32 31 31 31 33 34 36 34 31 28 24 22 22 24 25 25 28 28 28 29 29 32 35 37 41 44 46 48 47 48 52 52 50 53 56 52 55 57 45 40 51 60 54 33 25 33 31 29 31 34 51 63 59 51 50 58 63 57 52 49 49 52 53 53 50 45 42 38
37 34 32 30 29 29 29 29 29 29 29 29 30 31 30 31 34 35 35 34 32 32 31 33 34 35 38 38 32 29 25 21 22 25 25 24 29 30 30 31 30 32 34 35 39 41 44 49 50 50 54 54 48 47 53 55 58 55 41 34 35 47 63 47 23 28 34 31 34 35 40 57 64 55 51 59 61 57 54 50 48 51 53 52 51 47 43 40
39 37 35 32 30 29 29 30 30 29 28 28 29 30 30 32 34 35 34 33 32 32 33 36 36 37 41 40 35 31 26 22 21 24 23 23 26 28 30 31 30 32 33 34 36 38 42 49 52 52 54 55 49 45 50 56 57 53 44 34 28 36 54 50 32 31 32 32 41 42 35 46 60 57 55 59 59 57 54 50 49 50 53 53 51 48 45 43
42 40 37 34 31 30 30 31 31 31 29 29 29 30 31 32 34 34 33 33 35 35 37 38 38 40 42 41 39 33 26 21 20 22 24 23 22 22 24 26 27 29 29 30 32 34 41 48 49 52 56 55 51 46 48 53 51 49 46 36 29 33 38 44 44 33 28 35 45 44 36 42 57 58 54 54 57 58 51 47 49 48 50 51 48 46 45 44
45 42 38 35 33 31 30 31 32 32 30 29 29 29 31 32 32 33 32 33 35 37 38 38 38 38 38 38 38 32 26 20 18 23 24 19 18 18 20 21 23 25 24 27 31 33 39 46 49 53 57 55 53 48 46 50 49 48 46 35 33 35 32 41 45 34 40 51 43 35 36 43 52 56 55 46 46 57 53 47 48 47 47 48 45 44 44 43
47 44 40 37 35 33 30 30 32 32 30 29 29 29 31 31 31 32 31 31 33 35 36 37 36 34 33 35 32 26 23 21 20 21 17 13 14 15 17 18 19 20 23 27 30 32 37 44 49 55 57 55 53 48 45 46 50 52 45 34 34 35 34 43 48 46 59 60 40 29 37 48 50 51 54 47 40 49 52 48 48 46 44 44 44 43 43 42
48 45 42 39 37 34 32 31 31 32 31 28 27 30 31 31 32 31 32 32 33 35 35 35 35 34 33 33 26 22 21 21 21 17 11 10 12 11 12 15 16 20 25 26 28 31 34 37 45 52 54 53 51 48 45 42 48 51 41 33 34 32 34 42 46 51 53 45 37 34 37 50 53 47 50 51 49 51 49 46 47 46 44 44 44 44 43 44
50 47 43 40 37 35 33 32 31 32 32 28 28 30 31 31 32 31 32 33 35 37 37 36 36 34 33 30 23 19 19 21 20 15 9 8 9 9 10 12 16 23 23 22 26 30 31 34 42 50 51 50 48 47 45 39 43 48 40 34 34 28 29 34 36 44 42 30 33 38 38 43 47 49 50 49 53 58 52 46 45 44 44 44 45 46 46 47
51 48 45 42 38 36 34 33 31 32 33 30 29 29 28 28 30 30 32 33 35 38 39 39 38 34 31 28 22 18 17 20 18 10 5 5 7 8 10 13 21 24 19 19 25 29 31 34 40 46 48 46 45 46 45 38 38 44 42 37 32 25 27 29 29 41 42 30 27 36 44 42 40 48 54 49 52 59 54 48 44 42 43 44 45 48 48 49
50 49 46 43 39 36 35 33 32 32 33 31 29 29 28 27 29 30 32 33 36 39 40 40 38 33 30 26 21 18 17 19 14 6 4 4 6 8 13 19 23 24 19 20 28 32 30 28 33 42 44 42 44 47 44 37 35 40 42 39 33 27 30 28 25 34 41 34 29 34 45 45 41 46 51 51 54 55 51 48 43 41 43 44 47 50 49 49
50 49 46 43 40 37 35 33 32 32 33 32 30 29 29 28 28 31 32 34 36 39 39 38 36 33 28 23 20 17 18 19 11 3 5 4 4 10 19 24 25 23 20 22 28 33 29 21 28 40 40 39 44 47 43 38 36 37 37 36 32 27 27 27 27 32 37 35 31 31 40 48 48 46 47 49 52 51 46 43 41 42 44 45 47 49 47 47
51 49 47 45 41 38 35 33 31 31 32 32 30 29 29 29 30 31 33 34 35 38 40 36 33 32 28 23 20 17 17 16 8 2 3 3 6 13 25 29 24 21 22 24 25 32 29 19 26 38 37 38 43 44 42 37 36 36 34 33 31 26 23 24 28 32 31 29 27 24 31 45 51 49 46 45 48 50 45 40 39 42 45 46 45 46 47 46
50 50 48 46 43 39 36 32 29 29 30 31 31 30 31 31 30 30 31 32 33 37 39 33 30 33 31 25 22 19 16 12 3 2 3 7 12 20 30 30 22 19 22 24 24 28 26 19 26 36 37 37 40 42 43 38 35 36 35 32 28 27 26 24 25 29 27 26 27 24 23 34 46 48 46 43 42 45 44 39 39 42 44 45 45 46 46 45
49 50 48 46 43 39 36 33 30 29 29 32 33 32 32 30 29 30 30 29 31 35 38 33 30 35 34 27 24 20 13 8 1 3 5 11 19 27 32 27 20 19 21 23 22 23 23 20 25 33 35 32 33 41 44 37 32 32 35 33 26 27 34 28 22 26 26 23 25 22 17 22 32 38 42 43 41 41 42 39 38 41 43 44 47 48 46 44
48 47 46 46 44 41 37 34 31 30 28 29 30 30 30 30 29 31 29 29 31 33 37 37 34 37 34 27 25 19 9 6 2 5 8 15 21 27 29 22 19 21 23 23 21 19 19 22 24 30 33 29 29 37 40 36 31 30 36 37 28 29 34 25 20 24 24 21 23 22 19 21 27 30 35 44 44 38 35 36 36 38 42 45 46 45 45 46
48 46 44 45 45 43 39 35 32 29 25 25 27 28 29 29 30 30 27 29 32 33 37 38 35 36 33 27 25 16 5 5 5 9 14 18 20 23 26 21 19 22 24 24 22 18 17 21 24 27 32 31 30 35 39 37 32 30 36 37 29 28 28 20 19 24 22 20 22 21 20 25 31 30 27 35 44 41 32 33 34 35 39 43 43 42 44 47
47 48 47 47 46 43 40 36 32 29 25 24 25 27 28 28 29 29 26 27 31 34 38 37 34 34 31 27 25 15 6 8 10 13 17 18 17 22 26 20 18 22 24 25 24 20 20 24 24 24 29 32 31 33 37 35 30 30 36 36 27 25 28 23 19 21 22 22 20 18 17 25 34 34 25 21 31 40 37 34 34 37 41 42 42 44 47 48
47 47 48 49 47 45 43 39 34 32 29 26 25 27 27 26 26 27 26 26 28 34 38 36 34 34 29 27 25 19 15 14 13 15 18 19 20 25 25 17 17 22 24 24 20 18 23 27 25 24 26 27 27 27 30 29 26 28 36 37 30 26 28 27 20 18 19 21 18 15 15 21 28 32 29 21 22 32 38 37 36 39 42 43 44 47 49 47
48 47 47 48 48 47 45 42 38 33 31 28 25 26 27 26 24 22 23 25 27 33 38 34 32 31 29 28 25 20 20 18 16 16 18 22 24 25 22 16 18 21 23 22 16 17 24 25 24 24 24 24 23 22 26 26 24 27 33 35 35 31 28 27 24 19 16 19 21 17 15 17 21 25 28 25 23 28 33 35 36 38 41 44 46 48 48 48
48 47 46 46 48 48 46 42 38 33 30 28 25 25 25 25 23 20 21 25 26 32 36 33 30 30 29 29 24 19 20 20 17 16 18 24 26 23 19 18 19 20 23 21 16 18 21 21 22 23 21 21 20 20 24 26 24 28 33 33 35 36 32 29 27 22 18 19 22 20 17 17 17 20 22 23 24 27 28 31 35 38 40 43 45 46 47 48
47 46 45 45 46 47 46 44 39 34 30 27 24 23 24 24 24 22 21 23 25 29 33 31 27 26 27 28 22 17 19 19 17 15 17 24 25 21 18 18 19 22 24 20 16 16 16 17 21 21 19 19 18 18 22 25 24 28 32 33 34 36 34 31 27 23 21 21 22 24 23 19 16 15 18 22 24 24 27 30 34 37 39 41 43 45 46 45
46 46 45 44 43 46 47 45 42 36 32 28 24 22 22 22 23 22 20 20 23 26 29 29 25 22 25 26 19 15 17 17 16 15 15 20 22 19 18 17 18 21 23 18 14 14 14 17 20 18 15 16 17 17 19 23 25 26 29 31 33 34 35 36 33 29 27 27 29 31 27 20 16 15 16 22 23 22 24 29 32 35 37 39 40 42 42 41
46 47 46 44 42 44 46 46 43 38 33 29 25 21 19 19 20 21 19 18 20 23 26 27 25 21 20 20 15 14 16 17 15 15 15 18 19 18 17 17 18 19 19 17 14 14 16 18 16 13 12 12 13 15 16 21 27 29 28 30 33 36 38 42 43 41 39 36 37 39 36 26 20 19 19 21 23 21 23 26 30 34 36 37 38 38 37 37
46 46 47 45 43 43 45 46 44 39 33 30 27 22 19 18 18 18 17 15 16 20 23 25 25 22 17 13 11 14 17 17 16 15 16 16 16 14 15 17 18 18 18 15 13 13 17 18 15 12 11 9 10 13 14 18 25 29 31 32 35 37 39 41 43 44 43 41 40 41 39 32 25 22 20 21 22 23 24 26 29 33 35 37 37 36 35 36
Wind_Direction
272 271 270 269 269 269 269 270 270 270 270 270 270 269 268 267 266 265 264 263 261 260 259 258 257 256 255 254 252 251 249 248 246 244 243 242 241 241 240 239 239 239 238 237 236 235 233 231 231 231 232 233 233 233 235 237 237 238 237 236 236 234 232 233 232 228 229 229 229 232 230 234 231 232 239 239 238 234 237 243 239 240 244 245 247 250 256 261
272 272 271 271 271 271 271 271 272 272 272 272 272 272 271 271 270 269 267 266 264 263 261 259 258 257 256 255 253 252 251 250 248 246 244 243 242 241 240 239 238 238 238 237 236 235 234 233 231 231 231 232 232 232 233 236 236 237 237 236 235 234 234 233 234 231 227 227 230 235 242 248 236 226 238 241 239 235 233 241 242 241 245 247 250 252 253 256
275 275 275 275 276 276 276 276 276 277 277 277 277 277 276 275 274 272 271 269 268 266 264 262 260 259 257 256 254 253 252 251 250 247 246 244 243 242 241 239 238 237 237 237 236 235 234 234 232 231 231 230 231 231 232 234 236 235 235 234 232 233 236 235 235 234 230 229 229 230 240 253 241 220 226 235 233 234 232 237 239 239 243 246 250 249 247 249
284 283 282 282 282 283 283 284 285 286 286 286 285 284 282 280 278 276 274 272 270 269 267 265 263 262 260 258 256 254 252 252 250 248 248 246 244 243 241 240 239 237 237 236 236 235 235 234 233 232 231 230 230 231 231 232 234 234 234 232 230 233 237 236 235 236 234 232 229 230 234 249 245 222 224 235 233 232 233 234 237 242 244 243 246 247 245 248
295 293 292 291 291 293 294 296 297 297 297 296 295 293 291 289 287 285 282 280 277 273 270 268 266 264 263 261 259 257 255 254 250 247 248 248 246 244 242 241 240 239 237 236 235 234 234 234 234 233 232 231 230 231 230 230 233 234 234 231 230 233 235 236 237 237 237 235 232 234 230 233 241 229 228 238 237 231 232 240 246 249 249 242 240 243 245 248
305 303 302 302 303 304 306 307 307 307 305 302 300 297 295 294 292 292 290 288 285 282 278 274 271 267 265 264 262 260 258 257 253 249 249 248 246 245 243 242 240 239 238 237 236 234 234 233 233 233 232 231 230 231 230 230 233 235 233 231 230 232 235 237 238 238 239 238 234 236 236 230 235 238 235 240 241 234 228 233 234 230 237 239 235 237 244 247
315 313 313 313 314 315 315 314 312 309 306 302 299 297 296 295 294 293 291 290 288 287 285 282 280 275 271 267 265 263 261 260 257 252 251 248 246 245 244 243 241 239 238 237 236 235 234 233 232 233 232 232 231 230 231 230 232 234 232 230 230 231 235 236 237 238 239 241 236 233 239 234 232 240 241 238 243 241 229 230 234 230 235 244 245 243 246 248
324 322 321 321 320 319 317 314 311 308 304 301 299 298 298 296 294 293 291 289 288 287 286 284 283 280 277 274 270 267 264 263 260 256 254 251 247 246 244 244 242 240 238 237 236 235 234 233 232 232 232 231 231 230 230 231 231 232 231 229 230 232 235 236 237 238 237 240 237 230 231 231 230 238 243 237 239 243 233 234 240 237 240 248 252 251 249 249
326 324 322 321 319 318 315 312 309 306 303 301 300 299 297 296 294 293 292 291 290 288 286 285 283 281 279 277 275 272 268 266 264 260 258 255 251 248 246 244 242 241 239 237 236 235 234 234 232 232 232 231 230 230 229 231 231 231 231 230 230 231 234 237 237 236 236 238 239 236 234 236 236 238 242 238 236 239 233 237 242 240 242 245 245 248 248 249
324 322 320 318 317 315 313 311 308 305 302 302 302 301 299 299 297 296 295 294 292 291 289 288 286 284 281 279 277 274 271 268 265 262 260 258 255 252 248 245 243 241 240 238 236 235 234 233 232 231 231 230 229 229 229 230 231 231 231 231 231 232 233 237 237 234 235 237 238 240 238 238 240 239 239 239 239 239 231 237 243 240 238 240 241 244 247 249
323 321 318 317 316 315 313 311 308 305 305 306 305 305 304 303 302 301 299 297 295 294 292 290 288 286 283 281 278 275 272 268 266 263 261 259 257 255 251 248 245 242 240 239 236 235 233 232 232 231 230 229 229 229 228 228 229 229 230 231 231 232 230 233 237 234 233 235 237 240 239 237 240 239 236 237 241 238 232 239 244 240 237 238 241 244 246 248
324 322 319 319 317 316 315 312 309 307 308 308 307 308 307 307 306 304 302 300 298 296 294 292 290 288 285 282 280 277 273 270 266 263 260 258 257 255 253 251 247 244 241 239 237 235 233 232 231 230 230 229 228 228 228 227 229 228 228 230 230 231 230 229 234 233 230 234 236 240 242 238 236 236 233 236 241 237 234 240 243 242 240 239 241 243 245 246
326 323 321 320 319 317 315 312 310 308 308 308 308 309 309 309 307 305 303 302 299 297 296 294 294 292 288 285 281 277 274 271 267 263 260 257 255 254 253 251 249 246 242 239 238 235 233 232 231 230 229 229 228 228 228 227 228 228 228 230 230 231 230 228 232 234 231 232 235 239 242 237 232 232 234 238 240 238 237 238 240 242 242 240 240 241 243 244
327 324 322 321 320 318 315 313 310 309 308 308 310 311 310 309 307 306 304 301 299 297 297 301 303 300 293 287 282 278 274 271 268 264 261 257 255 253 250 249 248 246 243 240 238 236 233 232 231 229 228 228 227 227 227 226 227 228 227 229 231 231 230 229 232 234 232 232 234 237 239 235 231 232 236 240 240 239 239 238 239 241 241 241 240 240 242 243
329 326 324 323 321 319 316 314 311 309 310 311 313 313 313 311 310 308 305 301 299 298 302 311 315 312 302 293 285 278 272 269 267 263 261 258 254 251 249 247 246 245 243 239 237 235 233 232 230 229 227 227 227 226 226 226 226 227 226 227 230 230 229 230 233 234 232 233 235 236 237 234 232 234 237 241 241 239 240 238 239 241 240 241 241 240 242 243
331 328 326 324 323 320 316 313 312 311 312 314 316 317 317 315 313 310 306 303 302 302 307 318 325 323 314 302 290 280 273 267 264 261 258 257 254 251 247 244 243 242 241 238 235 234 233 231 229 228 226 225 225 225 225 226 225 225 225 226 229 229 228 229 233 234 232 233 236 236 235 234 233 235 238 242 243 241 239 236 238 241 239 240 241 241 242 243
331 329 327 326 323 320 316 314 314 314 316 319 320 322 323 321 319 315 309 305 306 308 311 319 327 327 323 313 297 284 276 269 263 259 255 254 253 251 246 241 238 238 238 236 234 232 231 231 229 227 226 224 224 222 222 224 224 225 225 226 228 229 228 229 233 236 234 232 235 236 234 234 234 234 237 242 245 243 239 235 236 240 240 239 241 241 241 244
333 330 328 326 323 319 316 314 315 316 319 321 323 327 329 330 328 323 314 308 310 314 315 318 324 327 328 322 306 287 277 270 264 260 255 252 251 250 245 239 235 235 235 234 231 230 229 229 229 226 225 224 222 221 221 222 223 225 226 225 227 229 229 228 231 236 238 233 232 236 235 233 232 234 236 239 244 244 240 236 234 238 240 239 242 243 241 243
333 330 328 326 323 318 315 316 317 318 320 321 323 326 330 331 331 328 319 310 312 316 316 318 322 327 328 324 316 301 285 274 266 262 257 250 247 245 242 237 234 233 232 232 229 227 227 228 227 226 224 222 222 222 222 223 223 225 226 225 226 228 229 229 228 232 240 237 231 233 236 235 231 231 234 237 240 242 241 238 233 234 238 238 242 245 241 242
334 330 328 325 322 318 316 317 318 319 319 318 319 322 327 329 328 330 325 315 316 319 318 316 319 325 327 325 321 312 297 282 267 262 256 248 242 240 239 236 234 232 231 230 229 226 226 227 227 226 225 223 223 223 222 222 222 223 225 225 225 227 228 230 230 228 236 240 233 229 234 237 233 229 231 236 238 238 237 236 230 228 235 237 240 245 243 243
334 330 328 325 321 317 316 318 318 318 316 314 316 319 323 326 326 328 327 321 319 322 321 316 317 321 325 326 323 313 298 283 271 263 256 248 241 237 237 236 234 233 231 230 230 227 225 226 226 226 225 223 222 222 222 219 218 219 221 223 225 227 226 227 231 228 232 240 236 230 233 236 235 231 228 234 237 235 233 232 229 229 234 236 238 244 245 243
334 331 329 325 321 317 317 318 318 317 314 312 315 318 321 324 324 324 326 324 320 322 322 318 318 318 320 323 325 318 299 282 276 267 258 249 241 238 237 236 234 233 232 231 231 230 227 226 226 225 223 222 221 220 220 218 217 217 217 219 224 226 226 225 228 229 230 238 238 233 234 234 234 233 228 233 237 235 233 233 234 236 238 237 238 242 244 243
334 331 328 326 321 317 317 317 318 317 315 314 316 320 322 323 323 323 324 324 322 322 323 322 320 318 318 319 322 321 304 286 276 270 263 251 242 238 238 237 235 233 232 232 231 233 232 227 224 223 220 219 219 217 217 216 215 215 213 215 216 214 219 221 221 222 226 235 237 235 237 235 233 235 230 233 238 236 233 233 234 237 237 237 236 239 242 242
335 330 328 327 323 319 317 317 318 318 317 317 319 323 324 324 324 324 324 324 322 322 323 325 324 321 320 317 317 319 311 294 276 268 263 252 244 239 237 237 234 231 232 232 232 233 234 228 221 220 219 218 217 215 214 214 214 211 209 214 214 208 212 218 218 219 224 232 235 233 237 238 234 233 230 232 238 237 232 229 230 233 234 234 234 235 237 237
337 331 328 327 325 321 317 317 318 319 319 320 323 325 326 326 325 325 325 325 322 321 324 327 329 327 323 318 313 312 310 300 280 269 262 250 245 240 237 236 234 232 231 233 233 232 232 229 222 219 218 217 215 214 213 212 212 210 209 213 213 209 210 211 211 216 222 230 234 230 230 235 235 232 230 231 236 236 231 226 227 230 231 232 233 233 233 233
340 333 329 328 328 324 320 318 318 319 320 322 325 327 328 329 328 326 326 325 322 322 324 327 332 332 329 323 315 307 303 300 283 271 263 253 248 243 239 237 235 234 232 234 235 232 229 226 224 221 218 217 215 213 212 211 210 209 209 213 210 206 209 206 201 206 220 228 233 232 228 230 236 235 230 230 235 235 230 226 226 228 231 232 232 232 231 232
344 337 330 328 329 327 324 321 320 321 321 323 325 327 329 331 332 329 327 327 325 324 325 327 331 332 331 329 322 308 297 294 288 275 265 256 249 244 240 239 238 236 236 237 237 234 227 222 224 223 218 217 215 213 212 210 209 207 209 213 209 203 206 208 205 206 221 227 230 235 231 226 231 236 232 230 235 237 231 227 227 226 229 232 231 231 230 230
347 341 334 329 329 330 329 325 322 321 322 324 326 328 331 333 333 331 330 330 329 327 326 325 327 328 327 327 324 315 296 287 289 282 269 256 247 244 240 239 239 238 239 239 239 237 230 224 225 224 219 215 214 214 211 210 208 204 207 214 210 207 206 204 207 209 217 222 220 231 232 223 222 232 234 232 234 236 231 226 228 227 228 231 230 230 230 229
350 346 339 332 330 331 332 331 327 323 323 324 326 329 331 333 334 333 333 334 332 329 326 324 325 326 325 323 322 318 302 285 284 286 281 262 247 245 242 240 242 242 243 243 240 237 230 225 224 224 219 213 213 213 212 212 207 199 201 211 210 210 208 201 205 207 212 219 213 224 232 226 222 226 231 232 231 232 231 226 227 229 228 230 231 230 231 230
353 349 344 337 332 331 334 334 332 328 325 325 327 330 331 334 334 334 336 338 336 332 327 324 324 325 324 322 321 317 306 291 287 289 288 271 252 246 244 244 244 245 248 248 240 232 226 221 219 219 215 211 210 211 213 212 205 198 199 205 207 209 208 208 206 202 211 222 214 217 229 227 224 223 227 232 230 229 231 228 225 228 229 229 230 230 230 230
356 352 348 342 336 333 334 335 335 333 330 329 330 331 332 334 334 335 338 339 340 338 330 326 326 325 324 321 318 314 305 300 296 291 288 276 258 248 245 246 247 249 252 246 235 226 219 214 212 212 209 207 206 208 213 212 205 201 199 197 203 207 207 210 207 197 208 223 218 214 220 226 225 222 225 231 232 231 230 229 226 227 228 228 228 228 228 229
357 354 350 346 341 336 335 337 339 338 335 334 334 334 334 335 335 338 339 339 342 341 336 331 327 322 318 314 313 311 305 308 303 294 290 274 257 248 243 244 249 252 250 238 224 216 212 208 206 205 203 202 202 204 209 209 206 203 196 192 199 202 203 207 206 202 208 217 220 214 212 223 225 221 222 228 234 233 227 228 229 228 229 229 228 229 229 230
359 356 352 349 345 341 337 337 340 341 339 337 337 337 336 337 338 339 341 341 341 342 338 334 327 321 316 312 312 307 303 314 313 301 293 270 249 246 241 244 251 248 238 223 211 206 205 203 200 198 198 199 199 201 203 204 205 199 190 191 196 194 196 201 201 205 212 213 216 211 208 220 224 221 220 221 233 235 229 227 229 228 229 230 229 229 229 230
359 357 354 350 347 344 339 338 341 343 343 340 339 339 338 338 340 339 341 341 341 342 339 334 331 328 323 318 314 303 301 319 322 307 291 261 245 243 238 250 255 234 213 202 196 198 201 200 196 192 193 195 196 198 197 200 206 197 187 190 194 191 197 201 200 207 214 214 210 204 209 218 219 221 220 216 224 232 228 226 227 226 227 226 226 227 226 227
0 357 355 352 348 346 342 339 341 344 346 342 339 342 342 340 340 341 341 340 340 342 340 336 332 329 326 322 312 299 304 323 326 312 287 254 243 235 239 255 243 207 195 191 188 193 197 198 195 191 191 192 193 196 192 196 205 197 186 191 192 192 201 204 204 208 212 213 207 204 214 221 219 220 221 217 222 228 226 224 224 223 223 221 221 223 223 223
1 359 356 353 349 348 345 341 341 344 347 345 344 347 347 340 340 342 340 338 340 341 340 338 335 331 328 323 312 305 315 329 327 310 279 244 234 237 242 237 211 189 182 179 180 188 192 194 194 192 191 189 191 197 192 193 201 195 188 191 188 188 200 202 204 208 208 208 208 208 214 219 219 222 221 217 223 229 228 224 224 222 220 218 218 219 220 221
0 359 357 355 351 349 347 344 342 344 347 349 347 348 347 340 339 342 338 336 339 340 340 338 337 335 329 321 315 315 322 328 325 308 266 232 239 248 222 198 189 179 163 158 171 181 185 187 191 193 192 188 187 194 195 193 194 193 192 188 179 184 199 201 202 207 207 203 205 211 212 212 214 219 220 217 220 227 226 223 223 221 219 218 217 219 219 219
360 359 357 355 352 350 349 347 344 343 347 351 348 347 348 343 342 344 340 337 339 342 342 339 337 335 331 323 320 322 326 330 329 309 263 257 258 238 198 182 178 170 154 152 166 175 177 182 190 191 189 187 186 190 195 192 186 192 196 187 178 186 197 198 196 203 207 201 199 211 214 214 214 217 219 218 220 226 225 223 221 220 219 217 217 219 219 219
359 359 357 355 354 353 351 349 346 344 348 351 349 349 349 346 347 348 343 340 341 343 342 340 336 332 330 328 326 328 330 333 337 307 266 260 238 210 186 175 167 163 159 156 161 169 171 180 190 185 184 186 187 190 194 191 183 188 193 188 185 188 192 196 194 197 204 200 197 210 217 216 216 218 220 220 223 227 227 223 220 219 218 216 218 219 218 219
358 359 359 358 357 355 353 351 349 346 347 349 349 349 350 350 351 350 344 343 344 342 340 338 334 330 327 328 335 340 334 332 342 305 247 166 163 177 171 167 161 154 159 161 161 165 169 178 183 180 182 186 187 190 193 189 182 182 184 185 191 193 189 193 194 195 199 196 193 205 217 217 215 217 219 220 223 226 226 222 218 219 218 216 218 218 218 219
358 359 0 360 358 356 355 353 351 347 345 347 349 351 354 353 351 349 346 347 347 343 342 338 332 333 330 330 346 352 338 335 342 223 191 155 159 164 165 166 157 142 153 162 159 160 167 177 177 178 184 188 188 190 192 189 184 185 185 181 186 189 185 187 194 194 193 195 198 201 210 216 215 216 219 222 224 224 222 219 217 219 218 216 216 216 216 217
358 358 360 0 358 356 355 353 351 349 347 349 351 351 353 353 351 351 351 354 351 345 347 347 342 343 338 337 356 1 346 353 65 179 159 162 165 163 166 166 153 144 152 155 149 152 164 168 169 178 187 189 187 188 192 189 183 186 187 181 184 188 184 183 188 190 189 193 203 204 206 214 211 211 218 222 225 224 220 218 218 218 216 215 216 214 212 214
358 359 358 359 359 358 357 354 352 352 351 351 350 348 350 351 354 356 355 357 355 348 350 353 350 348 342 344 3 8 1 25 97 159 145 156 160 162 167 160 144 147 152 149 138 139 158 163 163 174 184 190 188 186 191 190 181 186 188 184 186 188 184 182 183 189 190 189 197 202 207 210 205 206 215 219 221 221 215 214 217 216 215 216 216 212 207 210
357 357 358 359 360 358 357 356 355 354 351 349 348 346 350 353 356 358 358 357 357 354 353 353 352 351 345 348 7 10 6 56 107 144 143 151 154 159 165 153 138 145 150 150 146 141 152 158 157 168 178 185 186 185 191 191 184 187 187 181 183 189 191 192 193 196 190 181 189 193 200 210 207 208 217 218 221 223 215 210 214 215 214 216 215 211 209 210
354 356 357 359 0 359 357 356 354 353 351 349 348 347 352 358 357 357 360 359 356 356 357 356 358 356 349 353 13 25 57 90 121 140 142 146 145 153 159 148 136 144 148 150 155 158 155 147 150 167 178 183 185 186 190 191 188 187 183 179 185 195 194 186 187 198 191 183 187 178 184 209 211 211 215 212 217 223 220 212 210 210 211 213 212 211 212 212
352 355 357 357 357 358 358 357 356 355 353 352 351 349 351 1 1 355 359 1 356 359 4 6 4 1 355 1 20 45 69 87 123 140 138 138 136 147 157 146 129 137 144 146 149 154 149 143 150 164 172 181 187 189 190 188 187 187 185 186 189 189 186 183 182 189 185 184 188 176 183 208 212 212 213 206 206 215 216 213 210 209 209 209 211 211 212 212
350 354 357 356 354 356 357 357 356 355 354 352 353 351 350 358 5 360 359 2 1 4 10 12 8 5 5 9 23 53 72 85 114 128 131 134 136 143 148 134 122 131 140 141 134 133 139 143 153 158 163 174 182 189 194 191 189 188 189 193 192 186 185 191 191 186 183 188 190 185 184 196 206 211 213 213 214 214 214 212 210 211 210 209 211 212 211 210
348 351 356 356 353 354 356 357 355 352 352 352 353 353 351 354 3 6 4 4 6 9 11 15 12 10 12 14 24 57 77 85 101 111 123 133 136 139 135 121 120 132 138 136 125 122 131 142 154 159 165 173 176 180 188 194 197 196 194 195 195 191 189 192 193 192 191 186 184 187 181 170 182 204 209 211 215 216 214 211 209 211 211 209 210 212 212 211
346 348 352 356 354 352 353 356 356 352 351 353 354 353 352 352 359 6 7 6 9 11 13 16 15 11 11 15 28 63 80 82 91 98 118 134 136 135 128 118 121 133 136 133 125 120 127 145 156 160 164 172 177 176 180 190 198 201 202 202 199 197 194 193 192 194 195 182 173 183 183 164 160 185 204 206 207 210 211 210 209 210 211 210 210 212 213 210
345 345 349 354 355 352 351 354 356 353 351 352 354 355 352 352 357 4 8 10 11 11 15 19 21 16 10 12 30 72 81 79 89 97 115 136 139 135 131 123 124 136 140 137 131 125 128 144 153 157 161 168 177 177 181 193 196 199 205 206 203 202 201 198 193 192 195 186 173 173 173 167 167 179 196 201 198 198 203 205 207 208 210 212 212 213 212 207
343 344 345 350 354 353 350 352 355 354 350 349 351 355 352 350 356 1 4 9 11 11 15 20 24 26 19 12 32 77 85 81 89 100 116 135 141 141 143 135 130 139 145 142 138 132 131 139 146 152 152 157 172 177 181 192 198 202 206 206 205 205 205 205 201 198 196 187 178 178 174 173 184 190 190 192 191 193 195 197 202 205 209 213 214 215 214 208
342 342 343 346 351 353 351 351 353 353 351 347 347 352 353 349 352 360 2 5 10 13 17 21 24 29 31 27 48 79 86 87 93 103 117 133 140 141 146 142 134 137 143 142 141 141 139 141 145 146 142 144 164 176 181 190 199 206 209 209 208 205 206 208 208 207 204 196 193 190 182 178 185 192 193 192 194 197 194 194 199 202 207 211 213 214 214 211
Height
5750 5750 5750 5749 5749 5749 5748 5748 5748 5747 5747 5747 5746 5746 5746 5745 5745 5745 5744 5744 5743 5743 5743 5742 5742 5742 5742 5742 5743 5744 5744 5745 5746 5748 5750 5753 5755 5757 5760 5763 5765 5767 5771 5775 5777 5780 5783 5786 5789 5792 5793 5796 5798 5803 5806 5807 5810 5809 5809 5812 5812 5816 5821 5824 5830 5835 5838 5842 5844 5842 5842 5837 5838 5843 5844 5844 5844 5850 5850 5846 5850 5852 5853 5853 5853 5856 5857 5859
5747 5747 5746 5746 5746 5745 5745 5745 5744 5744 5743 5743 5743 5742 5741 5741 5740 5739 5738 5738 5737 5737 5736 5736 5736 5735 5735 5734 5735 5736 5736 5737 5738 5739 5744 5746 5747 5749 5752 5755 5758 5760 5763 5766 5770 5773 5776 5780 5783 5785 5787 5790 5793 5796 5800 5801 5802 5802 5805 5807 5807 5812 5818 5823 5828 5831 5833 5838 5840 5840 5839 5834 5836 5843 5842 5841 5842 5846 5847 5845 5848 5850 5850 5850 5851 5853 5855 5857
5744 5744 5743 5743 5742 5742 5741 5741 5741 5740 5740 5739 5739 5738 5737 5736 5735 5734 5733 5732 5731 5731 5730 5730 5729 5729 5728 5726 5727 5727 5728 5729 5728 5732 5737 5737 5740 5742 5744 5747 5750 5752 5755 5758 5762 5766 5768 5773 5775 5778 5780 5783 5786 5789 5793 5795 5794 5797 5800 5800 5803 5810 5815 5820 5824 5826 5829 5833 5836 5838 5836 5831 5833 5839 5839 5838 5840 5843 5844 5845 5846 5848 5848 5849 5850 5851 5853 5854
5742 5741 5741 5740 5739 5739 5738 5738 5737 5736 5736 5735 5734 5732 5732 5730 5729 5728 5727 5726 5725 5725 5723 5723 5722 5722 5721 5719 5720 5719 5720 5720 5718 5726 5729 5728 5732 5734 5736 5739 5742 5744 5747 5750 5754 5758 5761 5765 5768 5771 5774 5777 5781 5783 5786 5789 5788 5792 5793 5794 5802 5808 5810 5814 5818 5821 5825 5826 5830 5833 5833 5831 5829 5832 5836 5835 5838 5841 5842 5844 5845 5847 5847 5846 5847 5848 5850 5852
5739 5738 5738 5737 5736 5735 5734 5734 5733 5732 5730 5729 5728 5726 5725 5724 5723 5721 5721 5720 5718 5718 5717 5716 5715 5716 5714 5712 5713 5711 5712 5710 5709 5720 5721 5719 5723 5725 5728 5731 5733 5736 5739 5742 5745 5750 5753 5757 5760 5762 5766 5771 5776 5776 5779 5784 5785 5786 5787 5792 5801 5804 5805 5809 5813 5817 5819 5821 5825 5827 5828 5831 5828 5827 5833 5834 5836 5840 5842 5845 5846 5847 5844 5842 5844 5845 5847 5849
5736 5735 5735 5733 5732 5731 5730 5729 5728 5726 5725 5723 5722 5720 5719 5718 5716 5715 5714 5713 5711 5710 5710 5709 5709 5709 5707 5706 5706 5704 5705 5700 5702 5713 5712 5710 5714 5716 5720 5722 5724 5727 5730 5734 5737 5741 5745 5749 5751 5754 5760 5764 5768 5770 5775 5780 5780 5778 5782 5790 5795 5799 5801 5804 5809 5811 5813 5815 5820 5824 5823 5827 5826 5824 5830 5831 5832 5836 5841 5843 5842 5842 5840 5838 5841 5842 5843 5846
5734 5732 5731 5730 5728 5727 5726 5724 5723 5722 5720 5719 5717 5716 5715 5713 5712 5711 5709 5708 5706 5705 5704 5703 5703 5702 5701 5701 5700 5698 5697 5693 5696 5704 5702 5702 5706 5708 5711 5712 5715 5718 5721 5725 5728 5732 5737 5740 5744 5748 5753 5756 5760 5765 5770 5773 5773 5773 5778 5785 5790 5794 5795 5798 5804 5805 5808 5810 5816 5823 5820 5819 5821 5823 5826 5828 5830 5832 5837 5838 5834 5835 5836 5836 5838 5838 5841 5843
5730 5729 5727 5726 5724 5723 5722 5721 5719 5718 5716 5715 5713 5712 5711 5709 5708 5707 5705 5704 5702 5701 5699 5698 5697 5696 5695 5694 5693 5692 5690 5688 5691 5694 5692 5695 5699 5700 5702 5704 5707 5710 5712 5716 5720 5724 5727 5732 5737 5741 5743 5748 5754 5760 5763 5765 5766 5768 5773 5781 5786 5788 5789 5793 5798 5799 5803 5806 5809 5815 5814 5812 5817 5822 5821 5825 5828 5828 5835 5833 5828 5832 5834 5836 5837 5836 5839 5840
5727 5726 5724 5723 5722 5720 5719 5718 5716 5714 5712 5711 5710 5709 5707 5706 5704 5703 5701 5699 5697 5696 5694 5693 5691 5690 5688 5687 5686 5685 5683 5684 5686 5686 5685 5689 5691 5692 5694 5695 5698 5701 5703 5707 5711 5715 5719 5724 5729 5732 5736 5741 5746 5751 5755 5756 5759 5764 5770 5777 5780 5780 5784 5788 5789 5793 5798 5801 5802 5804 5806 5807 5814 5819 5815 5822 5825 5824 5832 5828 5823 5831 5833 5834 5835 5835 5837 5838
5724 5723 5722 5720 5719 5718 5716 5714 5713 5711 5709 5708 5707 5705 5703 5702 5700 5698 5696 5694 5692 5690 5688 5686 5684 5683 5682 5680 5679 5677 5675 5676 5678 5679 5679 5681 5683 5684 5686 5688 5691 5693 5695 5699 5703 5706 5711 5715 5719 5724 5727 5732 5737 5742 5746 5749 5754 5761 5766 5771 5773 5774 5780 5781 5780 5787 5793 5795 5796 5796 5800 5806 5811 5812 5812 5820 5820 5822 5829 5821 5819 5830 5830 5830 5832 5833 5835 5835
5722 5721 5719 5717 5716 5714 5713 5711 5709 5707 5705 5704 5702 5701 5699 5697 5695 5693 5691 5688 5686 5684 5681 5679 5677 5676 5674 5672 5672 5668 5666 5668 5670 5672 5672 5673 5675 5676 5678 5681 5683 5685 5688 5691 5694 5698 5702 5706 5710 5714 5718 5724 5729 5733 5737 5743 5749 5754 5759 5763 5765 5766 5771 5774 5774 5781 5786 5788 5791 5791 5795 5803 5806 5805 5810 5817 5814 5817 5822 5814 5817 5827 5826 5826 5829 5831 5832 5833
5720 5718 5716 5714 5712 5710 5708 5706 5705 5703 5702 5700 5698 5696 5694 5692 5689 5687 5685 5682 5680 5677 5675 5672 5670 5668 5666 5665 5664 5658 5657 5660 5661 5663 5664 5665 5667 5668 5671 5673 5675 5678 5680 5683 5686 5689 5694 5697 5701 5706 5711 5716 5721 5725 5729 5736 5741 5746 5752 5753 5755 5758 5761 5769 5770 5773 5779 5783 5787 5788 5788 5795 5798 5800 5808 5812 5808 5812 5815 5812 5818 5823 5823 5824 5826 5829 5830 5831
5718 5716 5714 5712 5709 5707 5705 5703 5701 5700 5698 5697 5695 5693 5690 5688 5685 5682 5679 5676 5673 5671 5668 5666 5663 5661 5658 5658 5654 5649 5649 5651 5651 5653 5655 5656 5658 5660 5663 5665 5668 5670 5673 5676 5678 5681 5686 5689 5693 5699 5703 5707 5713 5716 5721 5730 5735 5739 5745 5745 5748 5751 5754 5764 5765 5766 5775 5779 5782 5783 5782 5788 5794 5798 5804 5805 5804 5808 5809 5812 5818 5819 5821 5821 5822 5826 5827 5828
5716 5713 5711 5709 5707 5704 5702 5700 5699 5697 5696 5694 5692 5690 5687 5684 5681 5677 5674 5671 5668 5666 5663 5661 5658 5654 5650 5649 5645 5641 5641 5641 5641 5643 5645 5647 5649 5651 5653 5656 5660 5662 5665 5669 5670 5674 5679 5682 5686 5690 5694 5699 5705 5708 5715 5724 5727 5731 5738 5739 5741 5744 5751 5761 5760 5760 5770 5774 5776 5778 5777 5784 5791 5796 5800 5800 5800 5803 5804 5811 5815 5815 5818 5817 5819 5823 5823 5825
5713 5711 5709 5706 5704 5701 5699 5698 5696 5695 5693 5691 5689 5686 5683 5680 5676 5673 5669 5666 5664 5661 5659 5656 5652 5647 5642 5639 5636 5633 5632 5632 5633 5635 5636 5638 5640 5641 5644 5648 5652 5654 5657 5661 5663 5666 5671 5674 5678 5682 5688 5693 5696 5701 5709 5714 5717 5723 5729 5731 5733 5739 5750 5756 5753 5755 5765 5769 5771 5772 5773 5780 5788 5792 5796 5794 5795 5799 5800 5807 5812 5810 5814 5815 5816 5819 5820 5822
5711 5708 5706 5703 5701 5699 5696 5695 5693 5692 5690 5688 5685 5682 5679 5675 5672 5669 5665 5662 5659 5657 5655 5651 5647 5641 5634 5629 5626 5625 5624 5624 5625 5627 5628 5629 5632 5633 5636 5640 5643 5645 5648 5652 5655 5659 5663 5666 5671 5675 5681 5684 5687 5695 5702 5705 5709 5715 5719 5724 5729 5737 5747 5750 5747 5751 5760 5765 5765 5766 5770 5776 5783 5788 5792 5790 5790 5794 5795 5802 5807 5806 5809 5812 5813 5816 5817 5818
5708 5706 5703 5700 5698 5696 5694 5692 5690 5689 5687 5684 5682 5678 5675 5672 5668 5665 5661 5658 5655 5653 5650 5646 5641 5635 5628 5622 5619 5617 5616 5616 5618 5619 5620 5622 5624 5626 5628 5632 5634 5636 5640 5644 5648 5652 5656 5659 5663 5668 5673 5675 5680 5688 5692 5694 5701 5708 5714 5723 5728 5734 5742 5744 5745 5746 5751 5758 5760 5762 5766 5771 5779 5784 5788 5789 5786 5786 5789 5797 5803 5803 5805 5809 5809 5811 5813 5815
5706 5703 5701 5698 5696 5693 5691 5689 5688 5686 5683 5681 5678 5675 5672 5668 5664 5661 5657 5653 5651 5649 5646 5642 5637 5630 5623 5617 5614 5611 5609 5610 5612 5612 5613 5616 5617 5619 5622 5624 5626 5629 5633 5636 5640 5645 5649 5652 5657 5661 5664 5667 5673 5678 5681 5687 5698 5706 5712 5721 5726 5730 5735 5738 5743 5743 5742 5751 5758 5758 5760 5766 5775 5779 5783 5786 5781 5779 5785 5792 5798 5799 5801 5805 5805 5806 5809 5810
5703 5701 5698 5696 5693 5691 5688 5687 5685 5683 5680 5677 5675 5672 5669 5666 5662 5658 5655 5650 5647 5645 5641 5637 5633 5628 5620 5613 5608 5606 5604 5604 5605 5606 5607 5608 5610 5612 5615 5618 5620 5623 5625 5629 5634 5639 5642 5646 5648 5651 5655 5660 5667 5672 5679 5690 5701 5706 5710 5717 5721 5723 5727 5732 5739 5741 5737 5742 5751 5754 5756 5761 5768 5774 5779 5780 5776 5777 5782 5787 5793 5796 5798 5801 5801 5801 5804 5806
5701 5698 5696 5693 5691 5688 5686 5684 5682 5680 5677 5674 5671 5668 5665 5662 5659 5655 5652 5647 5643 5641 5637 5631 5628 5625 5619 5612 5606 5602 5601 5600 5600 5601 5601 5602 5605 5607 5610 5613 5615 5617 5620 5624 5629 5633 5636 5638 5640 5644 5651 5659 5667 5672 5680 5690 5696 5700 5703 5708 5713 5715 5721 5727 5733 5739 5736 5734 5743 5752 5754 5755 5762 5770 5776 5774 5771 5774 5779 5783 5789 5793 5794 5796 5797 5797 5799 5803
5699 5696 5694 5691 5688 5686 5684 5681 5679 5677 5674 5671 5669 5665 5662 5658 5655 5651 5648 5644 5638 5635 5633 5628 5623 5620 5616 5611 5605 5600 5599 5598 5597 5597 5597 5599 5601 5603 5605 5608 5610 5613 5617 5620 5623 5625 5627 5629 5634 5641 5650 5658 5665 5669 5676 5682 5687 5690 5694 5700 5707 5710 5718 5725 5727 5734 5734 5728 5737 5748 5749 5751 5757 5765 5771 5770 5766 5769 5776 5781 5786 5790 5791 5791 5793 5794 5795 5800
5697 5694 5691 5689 5686 5683 5681 5679 5676 5674 5671 5668 5665 5662 5659 5655 5652 5648 5645 5641 5635 5631 5628 5624 5620 5616 5612 5608 5603 5599 5596 5595 5595 5594 5594 5596 5598 5600 5601 5603 5606 5609 5613 5615 5617 5618 5620 5624 5631 5639 5648 5655 5658 5662 5668 5674 5678 5682 5689 5698 5703 5706 5714 5720 5723 5730 5731 5724 5731 5742 5743 5747 5754 5758 5766 5765 5760 5765 5773 5779 5784 5786 5787 5788 5790 5791 5792 5797
5695 5692 5689 5686 5684 5681 5679 5676 5674 5671 5668 5665 5662 5659 5656 5652 5648 5644 5641 5638 5634 5628 5625 5621 5617 5613 5609 5605 5601 5598 5594 5593 5592 5592 5592 5593 5594 5596 5597 5599 5603 5605 5608 5610 5612 5613 5616 5622 5630 5638 5644 5647 5650 5654 5660 5666 5670 5676 5685 5691 5694 5701 5708 5713 5719 5726 5726 5720 5725 5736 5739 5744 5751 5753 5760 5761 5756 5761 5769 5775 5780 5781 5783 5785 5787 5788 5789 5792
5693 5690 5687 5684 5681 5678 5676 5673 5671 5668 5665 5662 5659 5656 5652 5648 5645 5641 5637 5634 5630 5626 5621 5617 5613 5609 5605 5602 5598 5595 5592 5591 5590 5589 5590 5591 5591 5591 5593 5596 5598 5600 5603 5605 5608 5610 5612 5620 5629 5634 5636 5639 5642 5648 5653 5658 5663 5670 5677 5681 5687 5697 5704 5709 5717 5720 5720 5716 5719 5732 5736 5738 5744 5748 5754 5758 5753 5756 5765 5772 5775 5776 5778 5781 5782 5783 5785 5788
5691 5688 5685 5681 5678 5675 5673 5671 5668 5665 5662 5659 5656 5652 5649 5645 5641 5637 5633 5629 5626 5622 5618 5614 5610 5606 5602 5598 5595 5592 5590 5588 5587 5586 5586 5587 5587 5588 5589 5591 5592 5596 5599 5601 5603 5605 5609 5618 5625 5627 5628 5632 5637 5642 5648 5653 5659 5665 5670 5676 5685 5695 5702 5708 5715 5715 5713 5712 5714 5725 5732 5733 5738 5743 5750 5753 5748 5751 5761 5767 5770 5772 5775 5777 5778 5780 5783 5785
5689 5685 5682 5679 5676 5673 5670 5668 5665 5662 5659 5656 5652 5649 5645 5641 5637 5633 5629 5625 5621 5617 5614 5610 5606 5602 5599 5594 5591 5589 5587 5585 5584 5582 5581 5582 5583 5584 5585 5586 5588 5592 5594 5596 5598 5599 5605 5614 5619 5620 5623 5628 5632 5637 5642 5648 5654 5660 5666 5673 5681 5691 5699 5704 5709 5710 5708 5708 5712 5718 5726 5732 5736 5738 5743 5747 5744 5747 5757 5762 5766 5769 5771 5773 5775 5778 5780 5783
5687 5683 5680 5677 5674 5671 5667 5665 5662 5659 5656 5653 5649 5646 5642 5638 5634 5629 5625 5621 5617 5612 5609 5606 5602 5599 5595 5591 5588 5585 5583 5581 5580 5578 5577 5577 5578 5579 5581 5582 5584 5587 5590 5591 5590 5592 5601 5609 5612 5614 5618 5623 5627 5632 5638 5644 5649 5656 5664 5670 5676 5685 5694 5698 5703 5706 5705 5708 5712 5712 5720 5733 5734 5732 5737 5743 5742 5744 5753 5758 5761 5764 5767 5769 5772 5775 5777 5781
5685 5681 5678 5675 5672 5668 5665 5662 5659 5656 5653 5649 5646 5643 5639 5635 5631 5626 5621 5617 5613 5609 5605 5602 5599 5595 5591 5588 5585 5582 5580 5578 5576 5574 5573 5573 5574 5575 5576 5577 5580 5583 5584 5584 5584 5589 5598 5604 5606 5611 5614 5617 5623 5629 5636 5641 5645 5654 5664 5668 5672 5678 5685 5692 5698 5702 5704 5707 5709 5708 5715 5726 5728 5728 5734 5738 5738 5741 5748 5754 5757 5760 5763 5765 5769 5772 5775 5779
5684 5680 5676 5672 5669 5666 5663 5659 5656 5653 5650 5646 5643 5640 5636 5632 5628 5623 5619 5614 5610 5606 5602 5598 5595 5591 5587 5584 5581 5579 5576 5574 5572 5570 5568 5569 5570 5570 5572 5573 5575 5576 5577 5578 5580 5584 5590 5596 5601 5606 5609 5613 5620 5627 5634 5637 5641 5652 5660 5664 5669 5673 5678 5686 5692 5698 5701 5701 5703 5707 5710 5717 5723 5727 5730 5730 5733 5737 5743 5750 5754 5757 5760 5762 5766 5769 5773 5777
5682 5678 5674 5670 5667 5664 5660 5657 5653 5650 5647 5643 5640 5637 5633 5630 5625 5620 5616 5611 5607 5603 5599 5595 5592 5588 5583 5580 5576 5574 5571 5570 5569 5566 5564 5564 5565 5566 5567 5568 5569 5570 5571 5572 5573 5577 5582 5587 5593 5598 5604 5611 5618 5625 5629 5632 5640 5649 5654 5660 5667 5669 5674 5681 5687 5695 5698 5694 5698 5705 5708 5712 5718 5724 5727 5726 5729 5735 5740 5745 5750 5753 5755 5758 5762 5766 5771 5773
5680 5676 5672 5668 5664 5661 5658 5655 5651 5647 5644 5641 5637 5634 5631 5627 5622 5618 5613 5609 5605 5601 5596 5592 5588 5584 5579 5575 5573 5570 5567 5566 5565 5562 5560 5559 5559 5561 5562 5563 5564 5565 5565 5566 5568 5572 5575 5579 5584 5591 5600 5607 5615 5621 5625 5631 5639 5643 5649 5658 5664 5666 5670 5675 5680 5687 5691 5689 5693 5703 5708 5709 5712 5719 5725 5725 5726 5731 5736 5742 5746 5748 5751 5754 5759 5763 5767 5769
5679 5675 5670 5666 5662 5659 5655 5651 5648 5645 5641 5638 5635 5631 5628 5624 5619 5615 5610 5606 5602 5597 5593 5589 5585 5581 5576 5572 5570 5567 5564 5562 5560 5558 5556 5555 5554 5556 5557 5558 5560 5560 5560 5561 5564 5567 5570 5574 5580 5587 5595 5603 5610 5616 5621 5628 5634 5637 5644 5654 5658 5661 5664 5667 5673 5679 5684 5686 5691 5700 5706 5706 5708 5716 5723 5724 5723 5726 5734 5739 5742 5745 5748 5751 5757 5761 5764 5766
5678 5673 5669 5664 5660 5657 5653 5649 5646 5643 5639 5635 5632 5629 5625 5621 5617 5613 5608 5603 5598 5594 5590 5587 5583 5579 5574 5570 5567 5564 5561 5560 5557 5555 5553 5551 5551 5552 5553 5554 5555 5555 5556 5558 5560 5564 5567 5570 5575 5581 5589 5598 5605 5610 5616 5622 5627 5631 5640 5648 5652 5656 5658 5661 5669 5675 5679 5684 5690 5699 5703 5702 5706 5713 5719 5723 5722 5722 5730 5736 5738 5742 5746 5750 5755 5759 5761 5764
5676 5672 5667 5663 5659 5655 5651 5648 5644 5641 5637 5633 5630 5627 5623 5619 5615 5611 5608 5603 5598 5594 5589 5584 5579 5576 5572 5567 5563 5560 5558 5556 5554 5552 5550 5549 5549 5549 5550 5551 5551 5552 5553 5554 5557 5561 5564 5567 5571 5577 5585 5594 5602 5607 5614 5621 5625 5630 5639 5645 5649 5654 5656 5659 5666 5671 5676 5683 5690 5697 5697 5697 5704 5709 5713 5720 5720 5718 5725 5730 5734 5739 5743 5748 5752 5755 5757 5760
5676 5671 5666 5661 5657 5653 5649 5646 5642 5639 5635 5632 5628 5624 5620 5616 5613 5609 5605 5601 5597 5593 5588 5582 5577 5572 5569 5564 5560 5558 5556 5553 5551 5549 5547 5547 5547 5547 5548 5549 5549 5550 5551 5552 5556 5561 5565 5570 5575 5580 5586 5593 5601 5606 5612 5619 5624 5630 5638 5643 5647 5653 5658 5661 5667 5672 5678 5683 5687 5691 5692 5695 5703 5706 5709 5716 5716 5715 5721 5726 5730 5735 5739 5743 5747 5750 5752 5754
5675 5670 5666 5661 5656 5653 5648 5644 5640 5637 5634 5630 5626 5622 5618 5614 5610 5607 5603 5598 5594 5590 5585 5581 5575 5569 5565 5561 5558 5556 5554 5552 5549 5547 5546 5545 5546 5546 5547 5548 5549 5550 5551 5553 5557 5562 5567 5572 5577 5582 5587 5593 5600 5606 5611 5616 5622 5629 5635 5639 5646 5655 5660 5663 5668 5672 5676 5680 5683 5687 5691 5695 5700 5701 5705 5712 5712 5711 5718 5724 5727 5731 5735 5739 5742 5746 5748 5749
5673 5668 5664 5660 5655 5651 5647 5643 5639 5635 5632 5628 5624 5621 5618 5614 5610 5606 5601 5597 5593 5588 5582 5577 5572 5568 5563 5559 5557 5555 5553 5551 5548 5546 5545 5545 5545 5546 5547 5548 5549 5551 5553 5554 5557 5563 5569 5574 5578 5582 5588 5593 5599 5606 5610 5615 5621 5628 5632 5638 5647 5655 5659 5661 5666 5669 5672 5677 5681 5685 5688 5691 5694 5696 5700 5707 5707 5707 5713 5720 5724 5728 5732 5735 5739 5741 5743 5745
5673 5668 5662 5658 5654 5650 5646 5642 5638 5634 5630 5627 5623 5621 5618 5613 5609 5605 5600 5595 5591 5586 5581 5575 5570 5566 5562 5558 5556 5554 5552 5550 5548 5545 5545 5544 5545 5546 5547 5548 5551 5553 5554 5555 5557 5563 5570 5576 5580 5584 5589 5594 5599 5604 5608 5612 5619 5626 5632 5639 5645 5651 5654 5657 5661 5665 5668 5675 5680 5683 5685 5687 5690 5692 5697 5702 5703 5704 5711 5718 5721 5725 5728 5732 5734 5737 5740 5743
5673 5668 5663 5658 5653 5649 5645 5641 5637 5633 5629 5625 5622 5619 5616 5612 5608 5604 5599 5595 5590 5585 5581 5575 5570 5565 5561 5558 5556 5553 5550 5548 5547 5546 5545 5545 5545 5546 5547 5549 5552 5554 5556 5558 5559 5563 5570 5575 5579 5583 5589 5594 5598 5601 5605 5610 5616 5623 5630 5638 5643 5647 5651 5654 5658 5663 5667 5673 5678 5680 5681 5684 5688 5691 5694 5699 5701 5703 5710 5716 5719 5722 5725 5728 5731 5735 5739 5741
5672 5667 5663 5657 5652 5647 5643 5639 5635 5631 5627 5625 5622 5619 5615 5611 5607 5603 5599 5595 5590 5585 5580 5574 5570 5565 5561 5558 5555 5552 5550 5548 5547 5547 5546 5546 5546 5547 5549 5551 5553 5555 5558 5561 5562 5565 5570 5574 5578 5583 5588 5592 5596 5599 5604 5609 5615 5620 5626 5634 5640 5645 5649 5653 5656 5661 5665 5671 5675 5677 5678 5682 5686 5690 5692 5695 5698 5702 5707 5713 5717 5719 5721 5725 5729 5733 5737 5739
5671 5666 5661 5655 5650 5646 5643 5639 5636 5632 5628 5624 5621 5617 5614 5610 5607 5604 5600 5595 5590 5585 5580 5575 5570 5565 5561 5558 5554 5552 5550 5549 5548 5548 5547 5547 5548 5549 5551 5553 5554 5557 5561 5564 5566 5568 5572 5576 5579 5584 5587 5591 5595 5600 5605 5610 5616 5621 5626 5632 5638 5642 5646 5651 5654 5658 5663 5668 5672 5675 5678 5681 5684 5688 5691 5693 5695 5699 5704 5709 5713 5715 5719 5723 5726 5729 5733 5737
5671 5665 5659 5655 5650 5646 5642 5638 5635 5632 5627 5623 5619 5615 5613 5610 5607 5603 5599 5596 5591 5586 5580 5575 5570 5566 5561 5558 5554 5552 5550 5549 5548 5548 5548 5549 5550 5550 5552 5554 5556 5559 5562 5565 5568 5571 5574 5578 5582 5586 5590 5593 5597 5602 5607 5611 5616 5623 5627 5632 5638 5642 5645 5649 5653 5657 5662 5667 5671 5675 5679 5681 5682 5686 5689 5691 5692 5696 5701 5706 5709 5712 5716 5719 5723 5726 5730 5733
5671 5666 5661 5656 5650 5646 5642 5638 5634 5630 5626 5622 5619 5616 5613 5610 5607 5603 5599 5595 5592 5586 5580 5575 5571 5566 5561 5558 5554 5551 5551 5550 5549 5549 5549 5551 5553 5555 5556 5557 5559 5561 5564 5566 5570 5573 5576 5579 5583 5588 5592 5596 5600 5604 5609 5612 5615 5620 5625 5630 5636 5641 5645 5650 5655 5658 5661 5667 5671 5674 5677 5678 5679 5682 5685 5688 5690 5694 5699 5704 5707 5710 5713 5716 5719 5722 5725 5728
5671 5668 5663 5657 5651 5645 5641 5637 5633 5630 5627 5624 5620 5617 5613 5609 5606 5602 5599 5595 5591 5586 5581 5575 5570 5566 5562 5558 5554 5551 5552 5552 5551 5551 5552 5553 5556 5559 5560 5561 5562 5564 5566 5567 5570 5574 5578 5580 5584 5588 5592 5595 5599 5603 5607 5609 5612 5617 5622 5628 5635 5640 5645 5649 5653 5656 5659 5664 5669 5672 5675 5675 5676 5679 5682 5684 5688 5692 5697 5702 5704 5708 5711 5712 5715 5718 5720 5724
5671 5667 5662 5657 5652 5647 5642 5638 5635 5631 5628 5625 5620 5616 5613 5610 5606 5602 5599 5596 5592 5587 5582 5576 5571 5567 5563 5560 5556 5553 5553 5553 5553 5553 5554 5557 5560 5562 5564 5566 5567 5568 5569 5569 5571 5574 5577 5580 5584 5589 5593 5595 5598 5601 5605 5609 5612 5615 5620 5627 5633 5638 5642 5645 5649 5653 5657 5662 5666 5669 5672 5673 5673 5677 5680 5682 5687 5691 5694 5698 5701 5704 5706 5709 5711 5714 5717 5721
5671 5666 5660 5655 5651 5647 5643 5639 5635 5631 5627 5624 5620 5616 5613 5610 5607 5603 5600 5597 5593 5588 5583 5578 5573 5569 5566 5562 5558 5556 5555 5554 5556 5557 5558 5561 5564 5566 5568 5570 5571 5573 5574 5574 5575 5577 5579 5582 5585 5590 5594 5598 5602 5605 5607 5610 5613 5615 5619 5625 5629 5634 5639 5643 5646 5651 5655 5660 5664 5668 5670 5671 5672 5676 5679 5681 5684 5687 5690 5694 5698 5700 5702 5706 5708 5711 5715 5719
5669 5665 5661 5655 5650 5646 5641 5637 5632 5629 5626 5623 5620 5616 5612 5610 5608 5604 5600 5598 5594 5590 5585 5580 5576 5572 5569 5565 5561 5559 5559 5558 5559 5561 5562 5565 5568 5570 5572 5574 5575 5577 5578 5577 5578 5580 5582 5585 5589 5592 5595 5599 5603 5606 5609 5612 5614 5617 5620 5624 5628 5633 5638 5641 5645 5649 5654 5658 5662 5665 5668 5670 5672 5674 5677 5680 5682 5684 5687 5692 5695 5697 5700 5703 5706 5709 5713 5716
5667 5663 5661 5656 5650 5645 5641 5637 5633 5629 5626 5622 5619 5616 5613 5610 5608 5605 5602 5598 5595 5591 5587 5583 5579 5576 5572 5569 5566 5564 5563 5563 5564 5565 5566 5568 5571 5574 5576 5577 5578 5580 5581 5581 5581 5583 5586 5588 5592 5595 5597 5599 5602 5605 5609 5613 5616 5618 5620 5623 5627 5631 5635 5640 5644 5648 5651 5654 5659 5664 5667 5669 5671 5674 5676 5679 5680 5682 5686 5689 5692 5694 5697 5701 5703 5707 5711 5712
5666 5662 5660 5656 5651 5645 5641 5638 5634 5629 5626 5623 5619 5616 5613 5611 5608 5605 5602 5600 5597 5593 5589 5585 5582 5580 5576 5573 5570 5568 5568 5568 5568 5569 5570 5572 5574 5577 5579 5580 5581 5582 5584 5585 5585 5587 5588 5591 5593 5595 5598 5601 5603 5605 5609 5613 5616 5619 5621 5623 5626 5629 5633 5637 5641 5645 5648 5652 5656 5661 5665 5668 5671 5673 5675 5676 5678 5681 5684 5687 5690 5692 5695 5698 5701 5704 5708 5710
5666 5662 5659 5656 5652 5646 5641 5637 5634 5629 5625 5622 5620 5617 5614 5611 5609 5606 5604 5601 5599 5595 5592 5589 5586 5583 5579 5576 5574 5573 5572 5572 5572 5573 5574 5575 5577 5580 5582 5583 5584 5585 5586 5587 5588 5590 5591 5593 5595 5597 5599 5601 5604 5606 5609 5613 5616 5618 5621 5623 5625 5628 5630 5632 5636 5640 5643 5647 5651 5656 5662 5667 5670 5671 5672 5674 5676 5679 5682 5685 5688 5690 5693 5696 5699 5702 5705 5708
5666 5662 5659 5656 5653 5647 5641 5637 5633 5629 5625 5622 5620 5618 5615 5612 5610 5607 5604 5602 5600 5597 5595 5592 5588 5585 5582 5580 5579 5577 5575 5576 5576 5576 5578 5579 5580 5582 5584 5585 5587 5588 5589 5590 5591 5593 5594 5595 5598 5600 5601 5603 5605 5607 5609 5612 5615 5617 5619 5622 5624 5627 5629 5631 5634 5636 5639 5644 5649 5652 5657 5663 5668 5669 5670 5673 5675 5678 5680 5683 5686 5689 5692 5694 5697 5700 5704 5707
5665 5660 5657 5654 5652 5648 5642 5636 5632 5629 5625 5622 5619 5617 5615 5612 5610 5608 5606 5604 5602 5599 5597 5594 5591 5588 5586 5584 5583 5580 5579 5579 5580 5580 5581 5582 5584 5585 5586 5588 5589 5590 5592 5593 5594 5595 5596 5597 5599 5601 5602 5604 5606 5608 5610 5612 5614 5616 5618 5620 5623 5626 5628 5631 5634 5636 5639 5643 5646 5651 5656 5660 5665 5668 5670 5672 5674 5676 5678 5681 5684 5687 5690 5692 5696 5699 5703 5706